Location: Gleizolles
(44.4833°N, 6.7667°E)
Time: 13:26:53
(UTC+00:00)

A-11 Canister half - Pass Details

Date: 22 June 2024
Orbit: 1515 x 1684 km, 47.2° (Epoch: 24 July)

Event Time Altitude Azimuth Distance (km) Brightness Sun altitude
Rises 01:41:25 0° 288° (WNW) 4,804 11.5 -16.2°
Reaches altitude 10° 01:46:16 10° 268° (W) 3,779 10.7 -15.8°
Enters shadow 01:50:57 15° 238° (WSW) 3,332 10.2 -15.3°
